Location: Theydon Bois
(51.6750°N, 0.1050°E)
Time: 10:46:22
(UTC+01:00)

Cosmos 1727 Rocket - Visible Passes

Search period start: 25 April 2018 00:00
Search period end: 05 May 2018 00:00
Orbit: 960 x 997 km, 82.9° (Epoch: 24 April)

Date Brightness Start Highest point End Pass type
(mag) Time Alt. Az. Time Alt. Az. Time Alt. Az.
25 Apr 4.1 20:46:56 10° N 20:53:04 60° ENE 20:59:10 10° SSE visible
25 Apr 5.7 22:33:01 10° NNW 22:38:07 28° W 22:43:12 10° SW visible
26 Apr 4.1 21:13:17 10° NNW 21:19:29 83° W 21:25:40 10° S visible
26 Apr 6.4 23:00:18 10° NW 23:03:59 17° WNW 23:07:39 10° WSW visible
27 Apr 4.8 21:39:48 10° NNW 21:45:44 50° W 21:51:39 10° SSW visible
28 Apr 5.7 22:06:33 10° NNW 22:11:48 30° W 22:17:04 10° SW visible
29 Apr 4.1 20:46:54 10° N 20:53:07 90° ENE 20:59:18 10° S visible
29 Apr 6.4 22:33:42 10° NW 22:37:42 18° WNW 22:41:43 10° WSW visible
30 Apr 4.7 21:13:23 10° NNW 21:19:24 55° W 21:25:23 10° SSW visible
30 Apr 6.9 23:02:55 10° WNW 23:03:25 10° WNW 23:03:57 10° WNW visible
01 May 5.6 21:40:05 10° NNW 21:45:30 33° W 21:50:54 10° SSW visible
02 May 6.4 22:07:08 10° NW 22:11:26 20° W 22:15:43 10° WSW visible
03 May 6.8 22:35:22 10° NW 22:37:11 11° WNW 22:39:00 10° W visible
04 May 5.6 21:13:38 10° NNW 21:19:11 36° W 21:24:44 10° SSW visible
